Tracking 19832 objects as of 24-Aug-2019
HD Live streaming from Space Station
objects crossing your sky now

OPS 9323 (IDSCS 10)

Track OPS 9323 (IDSCS 10) now!
OPS 9323 (IDSCS 10) is classified as:


NORAD ID: 2650
Int'l Code: 1967-003C
Perigee: 33,559.4 km
Apogee: 33,845.9 km
Inclination: 3.8 °
Period: 1,330.6 minutes
Semi major axis: 40073 km
RCS: 0.003 m2 (small)
Launch date: January 18, 1967
Source: United States (US)
Launch site: AIR FORCE EASTERN TEST RANGE (AFETR)
aabbcc
Your satellite tracking list
Your tracking list is empty




NASA's NSSDC Master Catalog

Two Line Element Set (TLE):
1  2650U 67003C   19233.83936701 -.00000083 +00000-0 +00000-0 0  9996
2  2650 003.7759 057.9882 0035754 045.6786 123.1371 01.08221773113470
Source of the keplerian elements: AFSPC